241P/LINEAR (2010)

Japanese version
Home page
Updated on September 3, 2011

---------------------------------------------------------------------

* Profile

Designation 241P/2010 P2
Recovery Date August 12, 2010
Magnitude 17.6 mag
Recoverer Hidetaka Sato (RAS Observatory, Mayhill)

* Pictures

* Orbital Elements

Epoch 2010 July 23.0 TT = JDT 2455400.5
T 2010 July 18.30095 TT                                 MPC
q   1.9214097            (2000.0)            P               Q
n   0.08979253     Peri.  110.15661     +0.50739797     -0.81197926
a   4.9390403      Node   305.97314     +0.59542603     +0.57239149
e   0.6109751      Incl.   20.88506     +0.62290862     +0.11427010
P  10.98
From 206 observations 1999 Oct. 30-2010 Aug. 13, mean residual 0".57.

* Magnitudes Graph

        m1 = 11.5 + 5 log d + 15.0 log r(t - 60)

---------------------------------------------------------------------

The orbital elements are published on M.P.E.C. 2010-P57.
The magnitudes graphs are made with Comet for Windows.

---------------------------------------------------------------------

Copyright(C) Seiichi Yoshida (comet@aerith.net). All rights reserved.